Regional Weather Roundup
Issued by NWS Goodland, KS

Home | Current Version | Previous Version | Text Only | Print | Product List | Glossary On
Versions: 1 2 3 4 5 6 7 8 9 10 11 12 13 14 15 16 17 18 19 20 21 22 23 24 25 26 27 28 29 30 31 32 33 34 35 36 37 38 39 40 41 42 43 44 45 46 47 48 49 50
000
ASUS43 KGLD 081808
RWRGLD

GOODLAND FORECAST AREA HOURLY WEATHER ROUNDUP
NATIONAL WEATHER SERVICE GOODLAND KS
1100 AM MST THU DEC 08 2016

...OFFICIAL OBSERVATIONS...

CITY           SKY/WX    TMP DP  RH WIND       PRES   REMARKS
GOODLAND KS    SUNNY     13   1  59 N6        30.57F
HILL CITY KS   SUNNY     18   5  57 NW13      30.69F WCI   5
IMPERIAL NEB   SUNNY     11   0  61 N6        30.60F
MCCOOK NEB     SUNNY     11   1  64 W9        30.66F
AKRON CO       SUNNY      9   0  67 S3        30.47F
BURLINGTON CO  SUNNY     15  -1  49 N3        30.53F
LIMON CO       FLURRIES  14   9  80 S13       30.42F WCI   0
$$

...UNOFFICIAL OBSERVATIONS...

CITY           SKY/WX    TMP DP  RH WIND       PRES   REMARKS
COLBY KS       SUNNY     16   7  67 N9        30.61F
LENORA KS        N/A     15  32 100 MISG        N/A
NORTON KS      SUNNY     16   1  53 W15       30.66S WCI   1
SHARON SPRINGS   N/A     14   5  68 CALM        N/A
TRIBUNE KS     SUNNY     16   5  62 NW3       30.61
TRENTON NEB      N/A     10  32 100 NW6         N/A
KIT CARSON CO    N/A     18   2  48 CALM        N/A
YUMA CO        FAIR       9  -4  56 NE3       30.52F
$$



USA.gov is the U.S. government's official web portal to all federal, state and local government web resources and services.